This is the latest recevied weather packets stored in our database for station/object SQ6IUS-13. If no packets are shown the sender has not sent any weather packets the latest 10 day(s).
| Time | Temp. | Humidity | Pressure | Rain* | Wind** | Luminosity | Snow |
|---|---|---|---|---|---|---|---|
| 1788596599 | 17.78° C | 100% | 1016.6 hPa | - | - | - | - |
| 1788595700 | 18.33° C | 100% | 1016.7 hPa | - | - | - | - |
| 1788594801 | 17.78° C | 100% | 1016.5 hPa | - | - | - | - |
| 1788593903 | 17.22° C | 100% | 1016.5 hPa | - | - | - | - |
| 1788593004 | 16.67° C | 100% | 1016.3 hPa | - | - | - | - |
| 1788592106 | 16.11° C | 100% | 1016 hPa | - | - | - | - |
| 1788591207 | 16.11° C | 100% | 1016 hPa | - | - | - | - |
| 1788590308 | 16.11° C | 100% | 1015.9 hPa | - | - | - | - |
| 1788589408 | 15.56° C | 100% | 1015.9 hPa | - | - | - | - |
| 1788588510 | 15° C | 100% | 1015.7 hPa | - | - | - | - |
| 1788585813 | 13.89° C | 100% | 1015.5 hPa | - | - | - | - |
| 1788564655 | 15° C | 100% | 1012.6 hPa | - | - | - | - |
| 1788561062 | 14.44° C | 100% | 1011.8 hPa | - | - | - | - |
| 1788560159 | 14.44° C | 100% | 1011.6 hPa | - | - | - | - |
| 1788559260 | 14.44° C | 100% | 1011.5 hPa | - | - | - | - |
| 1788558361 | 14.44° C | 100% | 1011.6 hPa | - | - | - | - |
| 1788553866 | 16.11° C | 100% | 1011.9 hPa | - | - | - | - |
| 1788552966 | 16.11° C | 100% | 1010.8 hPa | - | - | - | - |
| 1788552067 | 16.11° C | 100% | 1010.9 hPa | - | - | - | - |
| 1788551168 | 17.22° C | 100% | 1011.2 hPa | - | - | - | - |
| 1788550268 | 20.56° C | 100% | 1010.1 hPa | - | - | - | - |
| 1788549370 | 21.11° C | 100% | 1009.6 hPa | - | - | - | - |
| 1788543075 | 23.33° C | 100% | 1007.4 hPa | - | - | - | - |
| 1788540379 | 23.89° C | 100% | 1008.2 hPa | - | - | - | - |
| 1788538581 | 23.89° C | 100% | 1008.4 hPa | - | - | - | - |
* Rain since midnight (hover to see other rain measurements)
** Current wind speed in m/s (hover to see current wind gust speed)